Theta_e
334 333 326 320 307 303 301 305 305 305 308 313 315 312 312 316 311 308 331 334 336 333 334 333 334 331 330 329 330 331 331 333 336 336 336 337 335 335 334 337 335 336 338 338 339 338 337 336 334
333 328 322 314 304 299 302 307 303 309 315 316 317 317 315 313 321 324 327 334 334 332 332 333 333 331 330 329 329 329 330 331 333 335 336 336 333 332 335 334 334 334 336 336 336 336 334 333 333
332 325 314 308 304 300 300 307 308 314 316 316 315 320 318 315 323 325 333 334 332 331 332 332 333 331 329 328 328 328 328 330 330 332 333 335 333 331 335 333 332 332 333 333 334 333 332 332 331
327 322 315 305 301 306 305 308 314 314 316 318 318 314 320 326 324 330 333 332 330 330 332 332 332 330 328 328 328 327 327 328 328 330 332 331 332 331 334 332 330 329 331 331 331 331 331 330 329
327 319 306 303 302 304 309 312 316 314 315 316 316 312 315 325 330 332 332 329 329 330 332 332 332 330 329 327 328 327 327 327 327 327 327 328 329 330 331 331 329 327 328 330 328 327 326 327 326
315 316 302 300 301 305 310 316 316 315 316 316 315 315 316 328 329 331 330 328 330 329 331 330 327 330 329 327 326 325 326 326 325 324 324 324 326 328 329 330 328 326 326 327 326 325 324 323 322
312 308 303 303 302 303 309 317 315 315 315 315 319 312 319 324 329 330 329 329 329 329 329 329 327 326 325 325 325 324 323 322 322 321 321 321 321 324 325 327 328 327 325 324 323 323 321 321 320
315 310 303 305 302 302 312 315 318 317 314 321 321 312 313 322 328 329 328 328 328 327 326 326 325 324 322 321 321 322 321 320 320 319 318 317 318 319 319 323 324 324 324 323 321 320 319 318 316
319 305 299 304 304 305 311 313 318 321 317 319 321 320 323 326 328 326 325 325 325 324 323 323 322 321 321 321 318 319 318 317 317 318 315 319 321 321 320 317 319 321 322 323 322 320 317 315 313
312 304 303 309 306 307 309 312 317 317 316 317 318 322 326 324 325 323 322 322 323 321 321 321 320 319 320 318 321 321 320 321 321 321 320 321 320 319 319 316 316 317 317 319 321 318 314 315 316
311 305 309 305 308 308 310 313 318 316 313 318 317 317 322 321 323 322 322 323 323 323 322 321 320 320 321 321 322 322 323 323 322 321 321 321 321 322 321 321 320 321 316 320 321 321 319 317 315
306 310 308 306 309 308 311 316 314 317 315 319 321 322 320 319 321 321 321 322 322 321 321 322 322 321 322 322 322 322 322 323 323 323 322 323 322 321 320 320 319 319 320 320 320 320 319 317 316
308 309 308 308 307 307 312 312 313 314 319 321 322 320 319 320 321 323 323 324 324 321 323 323 324 322 321 322 322 322 322 322 323 323 322 321 320 319 319 319 318 319 318 319 319 318 318 317 316
308 307 307 307 306 308 309 308 310 314 319 319 319 318 318 319 321 323 323 322 322 323 324 324 324 324 322 322 322 322 322 323 322 322 320 317 317 318 316 316 315 317 317 318 318 317 316 316 316
308 303 305 306 306 307 310 305 306 313 317 315 316 317 318 319 323 322 322 323 325 325 326 321 322 323 321 318 318 318 320 317 318 318 318 319 318 318 316 317 317 317 317 317 317 316 316 315 315
303 304 297 305 306 305 307 301 308 315 315 313 314 315 316 319 322 324 325 325 326 327 325 321 319 320 319 318 318 317 317 317 317 318 318 319 319 318 319 319 317 318 317 316 315 315 314 313 313
301 295 298 300 308 305 305 303 307 315 315 313 313 316 317 320 323 324 324 324 327 327 324 321 319 319 319 320 319 318 318 317 318 319 319 319 318 318 318 317 317 317 316 315 315 314 313 311 310
295 296 299 298 302 305 303 304 304 311 314 314 315 316 318 319 321 323 323 324 324 325 325 323 320 319 319 320 319 318 317 317 318 319 319 319 319 318 318 317 316 316 315 314 314 312 312 311 309
301 299 298 300 302 302 302 304 305 304 310 312 314 317 317 319 322 324 323 324 324 325 323 321 318 318 318 316 315 316 315 316 315 317 317 317 317 316 316 316 315 314 313 312 311 310 308 307 307
301 298 296 298 302 302 301 302 306 309 306 310 312 314 316 318 319 319 318 319 321 323 321 319 318 317 317 317 319 320 317 316 316 317 315 314 314 314 312 312 311 310 308 307 306 306 304 303 304
300 298 295 297 298 299 299 301 304 308 305 305 308 313 315 316 317 317 317 320 323 323 320 317 316 317 318 319 317 317 317 316 316 315 313 308 308 307 305 303 303 303 302 301 301 301 300 298 300
295 303 301 297 296 292 301 291 301 305 304 302 304 305 308 311 316 317 316 317 319 320 319 317 317 316 316 316 318 318 317 314 315 313 307 303 303 301 300 300 300 299 299 298 298 297 298 298 295
297 301 299 298 296 296 293 292 298 301 302 304 303 305 306 309 313 313 313 315 315 315 316 312 311 312 315 318 319 318 316 315 310 304 300 300 300 299 298 298 298 297 297 297 297 296 296 297 296
302 297 296 295 293 287 294 293 295 298 301 304 304 305 305 306 308 311 312 311 309 310 311 309 309 309 312 313 315 314 311 306 301 299 298 298 298 298 297 297 297 297 296 296 296 296 295 295 295
300 295 285 284 284 286 291 291 295 301 301 303 305 306 306 306 306 307 307 307 307 307 307 306 306 305 306 306 304 303 301 299 297 296 295 295 295 295 295 295 295 295 295 295 295 295 295 294 293
297 297 290 283 284 287 288 287 295 299 299 300 302 303 304 304 305 306 307 307 306 304 303 299 300 298 298 298 298 298 297 296 295 295 294 294 294 294 294 294 294 294 294 293 294 293 293 293 293
292 292 293 287 283 286 290 291 295 293 294 296 298 299 300 301 303 305 305 305 303 301 298 297 297 296 296 296 296 295 294 294 293 293 292 293 293 292 292 293 293 293 292 292 292 291 291 291 291
293 293 287 286 283 282 286 286 292 291 291 293 295 297 300 301 303 304 304 302 299 297 295 294 295 294 295 294 294 293 292 292 292 291 291 291 292 292 291 291 291 291 291 290 290 289 290 289 289
288 287 287 289 287 285 284 290 293 290 291 292 294 297 299 300 302 302 301 300 297 294 293 294 293 292 292 292 291 291 290 290 291 290 290 290 291 290 290 290 289 289 288 288 288 288 288 287 288
291 290 290 289 284 285 284 289 291 292 293 293 293 296 299 300 301 301 300 296 293 291 291 291 291 290 291 290 290 290 290 290 290 290 289 290 289 290 289 288 287 287 287 287 287 286 287 286 286
Wind_Speed
7 8 5 1 3 2 6 3 1 5 7 3 6 2 3 7 0 3 6 7 12 10 10 10 8 8 7 7 6 7 9 12 13 13 11 13 13 13 12 14 13 14 13 13 15 15 16 16 16
6 4 4 3 5 8 8 2 5 5 5 11 9 7 3 5 4 9 8 10 12 10 8 9 8 8 8 7 7 9 8 9 11 12 13 12 12 12 10 13 14 14 14 14 15 15 16 15 16
4 5 4 5 5 8 5 2 7 8 8 5 5 5 2 4 6 12 10 13 11 10 9 10 7 8 8 7 8 7 7 8 10 12 12 14 13 12 10 12 13 13 13 14 15 14 14 16 17
3 5 3 9 11 9 8 3 7 10 3 2 7 8 5 3 10 7 13 13 11 10 9 9 8 9 8 8 7 7 8 8 8 10 11 11 12 11 10 12 13 13 13 12 14 15 16 16 15
4 4 9 10 11 4 6 5 12 8 5 8 3 6 6 3 7 13 14 10 11 10 9 9 7 8 8 8 8 8 8 9 9 9 8 8 9 12 12 10 12 13 10 13 13 14 14 14 14
6 5 10 14 14 6 5 4 10 4 4 7 6 10 7 5 10 13 12 11 9 9 8 8 8 9 9 9 8 8 9 9 9 9 9 9 9 11 13 9 10 11 10 12 13 13 13 13 12
12 9 14 16 11 6 5 6 6 4 6 6 10 7 6 9 10 13 11 10 9 8 8 7 7 9 9 9 8 9 9 8 9 9 9 9 10 10 11 13 12 10 10 9 10 10 9 9 11
9 7 11 17 11 7 4 4 1 4 4 7 3 6 7 14 14 12 11 10 9 7 7 6 6 6 6 7 8 8 8 8 8 8 7 6 6 6 8 7 11 10 10 8 8 7 7 8 8
5 5 12 18 16 6 4 5 4 3 8 3 2 2 5 18 17 13 11 9 8 6 6 6 7 6 6 6 6 7 7 6 4 5 5 3 5 5 5 7 8 8 9 10 9 9 10 9 2
10 13 19 9 5 8 7 5 7 5 8 4 4 3 17 19 17 16 14 12 10 9 8 6 6 6 6 4 5 5 4 3 4 4 5 4 5 5 4 4 5 5 8 4 6 6 5 5 6
15 19 14 8 3 5 6 6 4 4 7 6 9 14 19 18 16 15 14 12 11 9 7 7 6 6 6 5 4 3 2 2 3 4 3 4 3 3 4 3 4 5 5 5 5 4 4 6 5
15 18 14 8 4 5 9 8 4 7 3 2 2 17 20 18 16 15 13 10 10 10 9 8 7 6 6 4 4 4 3 2 2 2 2 2 2 3 4 4 4 4 4 6 5 4 5 6 6
14 15 12 7 5 3 9 6 1 5 3 2 11 17 19 17 16 13 12 11 10 10 10 10 9 7 6 5 4 3 3 3 2 1 2 2 3 4 3 4 4 4 4 4 5 5 5 6 6
7 8 11 5 4 4 7 5 3 2 1 5 13 15 17 18 16 12 11 11 11 10 11 10 10 9 7 6 5 4 3 2 1 1 1 1 1 2 2 2 2 2 3 4 5 5 6 6 7
15 9 5 6 4 5 5 5 5 3 4 8 11 13 14 15 16 15 13 12 12 10 10 10 10 8 7 6 4 3 2 1 2 1 1 1 1 0 0 1 2 3 3 5 5 6 6 7 7
7 9 12 11 9 1 6 14 8 7 8 8 10 10 11 14 16 15 12 13 11 10 11 9 8 9 8 7 5 3 3 2 2 1 0 1 1 1 1 2 3 4 4 5 5 6 7 8 8
6 9 10 10 10 5 4 8 8 7 7 8 9 12 12 13 15 15 11 11 11 10 8 9 9 10 9 6 4 3 3 2 1 2 2 2 1 3 3 4 4 5 4 5 5 6 7 9 9
14 8 15 6 11 12 11 13 7 8 8 10 10 11 13 14 16 14 13 9 9 8 8 8 8 9 7 5 3 3 2 2 2 2 1 1 2 4 4 3 4 5 5 5 6 8 8 9 9
12 12 12 3 2 15 21 18 13 11 11 11 11 12 13 15 15 12 11 9 8 7 7 9 9 9 7 4 3 2 2 3 3 3 4 3 4 5 5 4 5 5 5 6 7 7 9 8 8
16 14 7 4 4 7 15 25 20 16 16 16 15 15 15 14 13 14 12 9 9 10 9 9 9 10 7 5 2 3 4 3 4 3 4 5 5 5 5 5 5 6 6 7 7 8 7 7 7
9 15 7 6 6 1 5 15 22 15 16 15 15 13 14 16 17 15 13 13 12 11 11 10 8 10 9 7 5 5 5 4 4 3 2 4 5 5 6 6 5 5 5 5 7 7 8 8 9
5 8 12 13 6 3 7 5 11 17 18 18 18 17 17 17 16 16 15 13 12 10 9 8 8 8 7 8 7 8 5 5 3 2 3 3 4 5 6 5 5 5 5 6 6 6 6 7 9
3 5 12 9 7 5 6 3 5 5 15 21 22 21 19 19 18 17 15 13 11 9 9 8 8 7 7 8 7 6 5 4 4 3 4 3 4 4 4 5 6 6 5 7 8 8 8 7 8
11 10 6 4 3 6 10 10 5 8 16 15 17 18 18 16 14 14 13 12 11 9 9 8 9 7 6 6 6 6 7 6 5 3 2 2 2 2 5 6 6 6 6 8 8 9 10 9 9
5 11 2 2 3 3 2 9 11 8 10 14 12 16 17 16 17 16 16 15 13 13 11 8 9 9 8 8 7 7 7 7 6 4 2 2 3 3 5 6 7 7 8 8 8 9 10 10 10
12 11 5 6 5 3 3 7 8 4 7 6 7 6 11 15 15 16 16 15 13 13 11 8 8 9 8 8 9 7 7 4 4 4 3 2 3 4 7 7 8 9 9 8 8 8 8 10 9
4 6 4 6 2 1 6 6 15 5 9 7 4 6 12 15 17 18 16 14 14 14 11 10 10 9 8 9 7 7 6 5 5 4 3 1 3 4 7 8 8 9 8 9 9 7 10 10 11
2 5 4 1 7 6 3 5 3 2 5 3 7 10 11 13 16 15 14 14 11 10 10 9 9 9 8 8 7 6 6 5 4 3 2 3 4 6 7 7 8 9 9 9 10 9 10 11 10
2 3 4 3 1 2 2 1 1 6 9 12 9 9 11 13 16 15 14 13 11 8 8 10 10 10 9 7 7 7 5 5 4 3 2 3 4 5 6 8 9 10 10 10 10 11 11 12 13
2 4 4 3 4 1 2 2 0 6 8 8 10 7 10 12 14 14 14 13 10 10 9 11 9 9 9 8 7 7 6 4 3 3 3 3 4 6 7 8 9 10 10 11 11 12 12 13 14
Wind_Direction
268 238 295 71 227 57 274 233 102 149 161 86 120 185 122 30 350 16 119 147 133 132 127 126 108 104 100 95 83 54 40 36 39 45 46 49 59 49 39 44 44 45 43 55 49 51 53 48 52
296 287 250 130 199 205 252 213 194 138 111 124 105 118 115 93 50 113 139 145 135 129 124 116 109 108 98 93 68 55 38 32 39 42 42 58 55 52 45 54 46 42 36 43 48 48 50 46 43
270 257 224 211 218 197 264 304 126 118 136 149 120 47 83 89 127 140 122 145 134 125 116 107 115 115 103 93 74 74 67 48 33 38 48 45 46 45 47 58 49 40 33 40 43 43 44 43 41
274 201 174 226 203 187 245 6 136 143 154 123 125 96 101 13 135 151 142 143 134 122 117 118 120 112 107 90 87 83 74 65 56 43 48 43 32 42 60 60 59 43 33 42 45 46 42 41 39
240 257 204 217 214 252 244 294 163 165 143 138 165 126 106 83 125 134 147 148 135 127 119 124 113 113 107 103 88 81 79 76 67 57 50 42 33 38 40 60 60 48 46 51 45 38 36 37 32
209 250 213 207 203 152 250 166 170 172 154 135 122 128 130 129 148 147 147 143 131 127 124 122 99 87 95 93 87 84 82 73 66 62 55 45 39 35 33 53 59 61 52 43 32 32 28 26 25
234 216 222 211 222 205 182 159 181 173 163 160 137 135 119 169 163 152 146 139 136 131 128 128 123 110 90 81 80 85 77 66 65 60 56 49 46 41 37 37 44 44 45 44 41 36 32 25 20
229 217 216 214 216 227 107 185 116 196 140 119 180 165 168 175 164 153 149 143 143 137 135 130 125 117 108 109 82 75 71 72 70 62 57 50 72 42 40 14 34 28 27 35 48 34 22 14 18
195 211 211 216 209 177 161 191 135 101 142 170 146 167 135 149 156 156 152 156 153 147 151 145 136 130 124 118 105 111 88 85 107 105 58 103 58 49 45 51 23 16 7 3 22 15 7 351 345
194 205 205 196 188 178 168 180 159 171 162 170 146 98 135 151 162 166 172 172 174 169 165 154 143 135 136 135 131 109 113 92 83 71 61 58 58 48 25 49 23 27 3 338 355 4 332 310 350
200 214 193 171 153 198 157 138 167 170 205 195 186 162 156 160 172 175 183 179 179 170 162 163 152 155 157 143 142 138 137 130 115 99 75 68 58 44 40 28 24 10 8 358 343 343 354 349 340
191 212 184 147 147 197 165 131 170 202 52 356 178 165 163 168 179 183 184 176 174 179 175 170 169 164 164 158 170 161 169 163 149 105 80 58 54 47 37 29 20 11 2 353 350 343 328 321 324
208 188 181 130 106 242 151 119 92 212 359 265 153 163 171 174 185 187 187 184 182 185 182 181 177 178 175 183 173 179 183 192 137 116 56 14 28 21 22 24 10 7 350 354 340 332 325 318 310
141 159 151 127 124 247 170 114 128 160 50 137 160 169 177 184 188 187 191 188 192 193 190 182 189 186 182 191 193 186 193 173 188 198 152 109 40 20 14 8 344 346 330 339 328 325 318 315 315
133 123 135 163 172 210 155 128 209 130 162 163 173 173 183 193 193 197 193 198 195 196 188 191 194 186 189 190 191 204 179 191 209 194 248 71 191 227 230 310 330 343 343 324 323 316 313 313 315
122 148 180 181 189 202 246 188 178 167 172 172 179 177 188 202 201 200 198 206 199 192 198 188 185 187 193 196 188 182 189 189 185 173 140 163 134 224 356 6 2 347 337 337 327 329 323 320 319
187 182 171 170 210 150 206 211 167 173 178 182 191 189 192 201 206 203 207 213 203 203 191 193 186 189 192 193 183 176 159 160 164 176 192 123 73 10 354 6 356 343 330 330 334 328 322 318 319
167 147 187 159 194 207 201 235 181 190 196 200 198 191 194 200 210 202 207 207 208 198 202 197 188 188 178 167 154 135 127 131 161 171 131 80 32 10 353 357 354 340 334 333 337 329 327 321 325
154 143 143 120 214 204 222 226 210 194 207 208 209 201 200 210 208 201 202 207 202 205 194 192 181 172 160 155 155 154 163 154 141 124 95 54 21 16 7 2 351 345 340 340 338 334 325 326 328
149 153 135 92 143 189 220 229 225 224 223 219 214 210 208 208 206 203 199 202 204 203 190 178 174 168 171 159 173 140 143 136 129 131 75 35 30 27 18 8 0 358 341 344 348 342 328 319 346
157 163 156 140 125 156 215 228 229 222 222 221 226 228 216 206 205 199 194 199 194 192 179 172 159 163 169 159 142 126 126 133 160 143 99 45 38 38 29 22 8 355 346 340 343 344 341 326 326
139 192 159 133 155 221 220 275 227 227 218 216 214 217 216 210 207 199 193 187 186 174 159 155 156 154 158 165 184 180 190 167 165 121 96 78 44 45 32 14 4 350 345 347 341 340 329 318 314
96 132 135 155 177 189 175 253 238 234 242 235 220 214 214 209 200 189 187 178 164 164 161 153 148 143 157 180 196 190 177 128 126 115 110 67 54 44 27 5 359 358 347 337 333 333 330 318 309
130 85 62 78 119 238 187 200 239 196 228 240 229 222 216 202 197 187 168 160 158 161 160 154 152 143 147 155 160 157 146 136 125 115 104 60 35 19 18 2 355 340 335 337 332 323 312 307 299
169 125 113 144 201 230 45 204 252 225 229 232 243 230 218 198 185 177 168 172 168 169 161 156 157 145 144 134 118 112 112 109 110 114 99 54 16 3 358 348 342 339 337 327 318 310 304 305 302
167 175 176 185 197 147 96 227 247 240 287 294 265 232 196 198 185 176 176 175 169 167 162 154 150 139 139 125 116 114 114 115 113 105 86 46 359 342 343 342 339 334 330 324 320 311 310 304 302
189 200 23 100 45 160 190 229 274 279 258 248 247 180 187 190 184 178 176 174 170 165 164 155 143 147 144 130 130 127 125 129 111 102 75 12 346 344 343 339 331 329 328 330 324 315 312 311 304
62 117 105 337 166 221 186 259 246 13 330 288 238 224 199 187 186 178 176 172 166 160 149 139 148 154 148 142 137 135 129 115 120 117 75 9 355 348 336 333 329 328 335 334 331 323 318 315 317
86 118 69 103 263 255 285 171 285 296 302 290 272 229 205 190 184 176 173 168 158 149 148 147 157 155 152 148 143 134 140 134 139 113 62 19 346 341 335 334 333 336 336 336 331 326 324 325 324
92 148 169 177 180 261 327 269 165 304 306 297 286 241 199 189 179 175 170 160 153 154 153 163 163 163 160 154 143 148 149 150 139 97 57 23 359 351 346 340 337 336 339 337 336 335 334 329 327